Hourly Data Report for October 15, 2016

All times are specified in Local Standard Time (LST). Add 1 hour to adjust for Daylight Saving Time where and when it is observed.

PANGNIRTUNG
NUNAVUT

66°08'36.300" N
65°42'40.500" W
22.60 m
2403049
71826
WXP

Download Data

Hourly Data (October 2016)
Hourly Data Report for October 15, 2016
Temp Definition
°C
Dew Point Temp Definition
°C
Rel Hum Definition
%
Wind Dir Definition
10's deg

Wind Spd Definition
km/h
Visibility Definition
km
Stn Press Definition
kPa
Hmdx Definition


Wind Chill Definition


Weather Definition


TIME
00:00 -2.8 -7.9 68 9 7   100.05   -6 LegendNANA
01:00 -3.1 -7.2 74 11 6   100.06   -6 LegendNANA
02:00 -3.1 -7.2 73 14 5   100.04   -5 LegendNANA
03:00 -3.5 -6.9 77 12 6   100.04   -6 LegendNANA
04:00 -3.0 -7.3 72 10 3   100.04   -4 LegendNANA
05:00 -3.3 -6.5 78 15 1   100.06   -4 LegendNANA
06:00 -3.7 -6.1 83 12 5   100.10   -6 LegendNANA
07:00 -4.3 -6.2 87 20 2   100.13   -5 LegendNANA
08:00 -4.0 -5.7 88 15 2   100.16   -5 LegendNANA
09:00 -3.4 -5.1 88 19 1   100.19   -4 LegendNANA
10:00 -3.4 -5.0 88 9 7   100.23   -6 LegendNANA
11:00 -3.7 -5.0 90 13 7   100.29   -7 LegendNANA
12:00 -3.3 -4.7 90 9 6   100.34   -6 LegendNANA
13:00 -3.9 -5.9 86 8 2   100.40   -5 LegendNANA
14:00 -3.4 -5.2 88 24 4   100.48   -5 LegendNANA
15:00 -3.5 -5.2 88 15 1   100.55   -4 LegendNANA
16:00 -3.6 -5.0 90 17 3   100.61   -5 LegendNANA
17:00 -3.6 -4.9 91 18 3   100.67   -5 LegendNANA
18:00 -3.2 -5.4 85 27 2   100.69   -4 LegendNANA
19:00 -3.7 -5.9 85 21 1   100.74   -4 LegendNANA
20:00 -4.2 -7.5 78 34 7   100.77   -7 LegendNANA
21:00 -4.4 -7.0 82 13 2   100.80   -5 LegendNANA
22:00 -4.1 -6.9 81 34 9   100.84   -8 LegendNANA
23:00 -4.4 -7.1 81 4 4   100.86   -6 LegendNANA

Notes on Data Quality.

Legend

  • E = Estimated
  • M = Missing
  • NA = Not Available
  • ‡ = Partner data that is not subject to review by the National Climate Archives
Date modified: